Time,TemperatureF,DewpointF,PressureIn,WindDirection,WindDirectionDegrees,WindSpeedMPH,WindSpeedGustMPH,Humidity,HourlyPrecipIn,Conditions,Clouds,dailyrainin,SoftwareType,DateUTC
2013-03-12 07:25:00,38.2,28.9,30.21,West,280,0.0,1.0,69,0.00,,,0.00,Wunderground v.1.15,2013-03-12 14:25:00,
2013-03-12 07:30:00,39.9,29.1,30.21,West,280,0.0,1.0,65,0.00,,,0.00,Wunderground v.1.15,2013-03-12 14:30:00,
2013-03-12 07:40:00,42.8,30.3,30.21,West,280,0.0,1.0,61,0.00,,,0.00,Wunderground v.1.15,2013-03-12 14:40:00,
2013-03-12 07:45:00,44.1,30.3,30.21,West,280,0.0,0.0,58,0.00,,,0.00,Wunderground v.1.15,2013-03-12 14:45:00,
2013-03-12 07:55:00,45.3,31.0,30.22,NE,43,0.0,0.0,57,0.00,,,0.00,Wunderground v.1.15,2013-03-12 14:55:00,
2013-03-12 08:00:00,46.4,30.2,30.22,NE,41,1.0,1.0,53,0.00,,,0.00,Wunderground v.1.15,2013-03-12 15:00:00,
2013-03-12 08:10:00,47.2,32.3,30.23,NW,304,1.0,1.0,56,0.00,,,0.00,Wunderground v.1.15,2013-03-12 15:10:00,
2013-03-12 08:15:00,47.9,32.5,30.23,NNE,27,1.0,1.0,55,0.00,,,0.00,Wunderground v.1.15,2013-03-12 15:15:00,
2013-03-12 08:25:00,49.8,29.3,30.23,SSW,213,0.0,1.0,45,0.00,,,0.00,Wunderground v.1.15,2013-03-12 15:25:00,
2013-03-12 08:31:00,51.0,32.0,30.23,SE,130,1.0,1.0,48,0.00,,,0.00,Wunderground v.1.15,2013-03-12 15:31:00,
2013-03-12 08:40:00,52.8,31.5,30.23,SSE,160,0.0,0.0,44,0.00,,,0.00,Wunderground v.1.15,2013-03-12 15:40:00,
2013-03-12 08:45:00,53.8,32.4,30.22,SSE,158,0.0,0.0,44,0.00,,,0.00,Wunderground v.1.15,2013-03-12 15:45:00,
2013-03-12 08:55:00,54.9,31.6,30.23,East,97,0.0,1.0,41,0.00,,,0.00,Wunderground v.1.15,2013-03-12 15:55:00,
2013-03-12 09:01:00,54.9,31.6,30.23,ENE,62,1.0,1.0,41,0.00,,,0.00,Wunderground v.1.15,2013-03-12 16:01:00,
2013-03-12 09:10:00,54.7,32.6,30.23,NE,41,2.0,2.0,43,0.00,,,0.00,Wunderground v.1.15,2013-03-12 16:10:00,
2013-03-12 09:15:00,54.9,32.2,30.23,NE,43,1.0,2.0,42,0.00,,,0.00,Wunderground v.1.15,2013-03-12 16:15:00,
2013-03-12 09:25:00,55.9,32.5,30.23,NNE,16,0.0,1.0,41,0.00,,,0.00,Wunderground v.1.15,2013-03-12 16:25:00,
2013-03-12 09:30:00,56.6,32.5,30.23,ESE,115,1.0,1.0,40,0.00,,,0.00,Wunderground v.1.15,2013-03-12 16:30:00,
2013-03-12 09:40:00,57.1,31.7,30.23,ENE,61,1.0,1.0,38,0.00,,,0.00,Wunderground v.1.15,2013-03-12 16:40:00,
2013-03-12 09:45:00,57.6,32.2,30.23,North,353,1.0,1.0,38,0.00,,,0.00,Wunderground v.1.15,2013-03-12 16:45:00,
2013-03-12 09:55:00,58.6,30.3,30.22,SSE,163,1.0,2.0,34,0.00,,,0.00,Wunderground v.1.15,2013-03-12 16:55:00,
2013-03-12 10:00:00,59.6,31.9,30.22,NE,39,1.0,4.0,35,0.00,,,0.00,Wunderground v.1.15,2013-03-12 17:00:00,
2013-03-12 10:10:00,60.6,29.8,30.22,East,87,1.0,1.0,31,0.00,,,0.00,Wunderground v.1.15,2013-03-12 17:10:00,
2013-03-12 10:15:00,61.5,29.7,30.22,ESE,120,1.0,1.0,30,0.00,,,0.00,Wunderground v.1.15,2013-03-12 17:15:00,
2013-03-12 10:25:00,62.3,30.4,30.22,East,96,1.0,1.0,30,0.00,,,0.00,Wunderground v.1.15,2013-03-12 17:25:00,
2013-03-12 10:30:00,63.1,31.1,30.22,NNW,345,1.0,1.0,30,0.00,,,0.00,Wunderground v.1.15,2013-03-12 17:30:00,
2013-03-12 10:40:00,63.5,30.6,30.22,North,6,2.0,2.0,29,0.00,,,0.00,Wunderground v.1.15,2013-03-12 17:40:00,
2013-03-12 10:46:00,64.2,30.4,30.21,NE,49,1.0,5.0,28,0.00,,,0.00,Wunderground v.1.15,2013-03-12 17:46:00,
2013-03-12 10:55:00,64.5,31.5,30.21,SSE,153,2.0,2.0,29,0.00,,,0.00,Wunderground v.1.15,2013-03-12 17:55:00,
2013-03-12 11:00:00,65.4,33.1,30.21,ESE,105,1.0,2.0,30,0.00,,,0.00,Wunderground v.1.15,2013-03-12 18:00:00,
2013-03-12 11:10:00,65.5,31.5,30.21,East,101,2.0,2.0,28,0.00,,,0.00,Wunderground v.1.15,2013-03-12 18:10:00,
2013-03-12 11:15:00,66.3,31.3,30.21,SSE,155,1.0,2.0,27,0.00,,,0.00,Wunderground v.1.15,2013-03-12 18:15:00,
2013-03-12 11:25:00,66.3,30.4,30.21,SSE,152,2.0,3.0,26,0.00,,,0.00,Wunderground v.1.15,2013-03-12 18:25:00,
2013-03-12 11:31:00,66.6,29.6,30.21,SE,143,2.0,2.0,25,0.00,,,0.00,Wunderground v.1.15,2013-03-12 18:31:00,
2013-03-12 11:40:00,67.3,30.2,30.20,North,354,1.0,2.0,25,0.00,,,0.00,Wunderground v.1.15,2013-03-12 18:40:00,
2013-03-12 11:45:00,67.2,29.2,30.20,NNE,25,2.0,4.0,24,0.00,,,0.00,Wunderground v.1.15,2013-03-12 18:45:00,
2013-03-12 11:55:00,67.8,30.7,30.20,WNW,295,4.0,4.0,25,0.00,,,0.00,Wunderground v.1.15,2013-03-12 18:55:00,
2013-03-12 12:00:00,67.9,30.8,30.20,WSW,239,3.0,3.0,25,0.00,,,0.00,Wunderground v.1.15,2013-03-12 19:00:00,
2013-03-12 12:10:00,68.6,32.3,30.20,SE,127,1.0,3.0,26,0.00,,,0.00,Wunderground v.1.15,2013-03-12 19:10:00,
2013-03-12 12:15:00,68.8,31.5,30.20,ENE,65,1.0,3.0,25,0.00,,,0.00,Wunderground v.1.15,2013-03-12 19:15:00,
2013-03-12 12:25:00,69.3,30.9,30.19,ESE,114,2.0,3.0,24,0.00,,,0.00,Wunderground v.1.15,2013-03-12 19:25:00,
2013-03-12 12:30:00,69.3,31.9,30.19,East,79,2.0,6.0,25,0.00,,,0.00,Wunderground v.1.15,2013-03-12 19:30:00,
2013-03-12 12:40:00,69.6,31.2,30.19,East,86,2.0,2.0,24,0.00,,,0.00,Wunderground v.1.15,2013-03-12 19:40:00,
2013-03-12 12:46:00,70.1,31.6,30.18,North,7,2.0,2.0,24,0.00,,,0.00,Wunderground v.1.15,2013-03-12 19:46:00,
2013-03-12 12:55:00,70.4,30.8,30.18,North,353,4.0,7.0,23,0.00,,,0.00,Wunderground v.1.15,2013-03-12 19:55:00,
2013-03-12 13:00:00,70.3,31.8,30.18,ENE,65,4.0,4.0,24,0.00,,,0.00,Wunderground v.1.15,2013-03-12 20:00:00,
2013-03-12 13:10:00,70.1,30.6,30.17,WNW,299,2.0,2.0,23,0.00,,,0.00,Wunderground v.1.15,2013-03-12 20:10:00,
2013-03-12 13:16:00,70.9,32.3,30.17,ENE,68,2.0,2.0,24,0.00,,,0.00,Wunderground v.1.15,2013-03-12 20:16:00,
2013-03-12 13:25:00,71.4,29.4,30.17,NW,322,2.0,5.0,21,0.00,,,0.00,Wunderground v.1.15,2013-03-12 20:25:00,
2013-03-12 13:30:00,70.4,28.6,30.17,East,94,3.0,3.0,21,0.00,,,0.00,Wunderground v.1.15,2013-03-12 20:30:00,
2013-03-12 13:40:00,71.8,30.9,30.16,SSE,153,2.0,2.0,22,0.00,,,0.00,Wunderground v.1.15,2013-03-12 20:40:00,
2013-03-12 13:46:00,72.6,29.2,30.16,North,359,1.0,2.0,20,0.00,,,0.00,Wunderground v.1.15,2013-03-12 20:46:00,
2013-03-12 13:55:00,71.7,27.2,30.15,NNW,335,3.0,4.0,19,0.00,,,0.00,Wunderground v.1.15,2013-03-12 20:55:00,
2013-03-12 14:00:00,72.0,27.5,30.15,WNW,282,3.0,3.0,19,0.00,,,0.00,Wunderground v.1.15,2013-03-12 21:00:00,
2013-03-12 14:10:00,72.1,30.0,30.14,NNW,347,2.0,4.0,21,0.00,,,0.00,Wunderground v.1.15,2013-03-12 21:10:00,
2013-03-12 14:15:00,72.0,28.7,30.14,NW,319,2.0,4.0,20,0.00,,,0.00,Wunderground v.1.15,2013-03-12 21:15:00,
2013-03-12 14:25:00,72.4,27.8,30.14,East,88,3.0,4.0,19,0.00,,,0.00,Wunderground v.1.15,2013-03-12 21:25:00,
2013-03-12 14:30:00,72.8,28.1,30.14,NNE,20,4.0,6.0,19,0.00,,,0.00,Wunderground v.1.15,2013-03-12 21:30:00,
2013-03-12 14:40:00,73.1,28.4,30.14,NNW,336,3.0,3.0,19,0.00,,,0.00,Wunderground v.1.15,2013-03-12 21:40:00,
2013-03-12 14:45:00,73.2,27.1,30.14,North,9,3.0,4.0,18,0.00,,,0.00,Wunderground v.1.15,2013-03-12 21:45:00,
2013-03-12 14:55:00,72.5,29.1,30.13,North,6,2.0,2.0,20,0.00,,,0.00,Wunderground v.1.15,2013-03-12 21:55:00,
2013-03-12 15:01:00,73.2,28.4,30.13,East,90,2.0,2.0,19,0.00,,,0.00,Wunderground v.1.15,2013-03-12 22:01:00,
2013-03-12 15:10:00,74.3,30.6,30.13,WSW,257,1.0,1.0,20,0.00,,,0.00,Wunderground v.1.15,2013-03-12 22:10:00,
2013-03-12 15:15:00,73.7,27.5,30.13,SSE,167,2.0,2.0,18,0.00,,,0.00,Wunderground v.1.15,2013-03-12 22:15:00,
2013-03-12 15:25:00,74.6,30.9,30.13,SW,214,1.0,2.0,20,0.00,,,0.00,Wunderground v.1.15,2013-03-12 22:25:00,
2013-03-12 15:31:00,74.2,31.7,30.13,East,83,2.0,2.0,21,0.00,,,0.00,Wunderground v.1.15,2013-03-12 22:31:00,
2013-03-12 15:40:00,74.5,29.5,30.12,SW,222,1.0,1.0,19,0.00,,,0.00,Wunderground v.1.15,2013-03-12 22:40:00,
2013-03-12 15:46:00,75.2,30.1,30.12,SE,134,1.0,3.0,19,0.00,,,0.00,Wunderground v.1.15,2013-03-12 22:46:00,
2013-03-12 15:55:00,75.1,30.0,30.12,East,99,1.0,1.0,19,0.00,,,0.00,Wunderground v.1.15,2013-03-12 22:55:00,
2013-03-12 16:01:00,74.9,31.1,30.12,East,93,1.0,1.0,20,0.00,,,0.00,Wunderground v.1.15,2013-03-12 23:01:00,
2013-03-12 16:10:00,75.3,30.2,30.12,SE,136,1.0,1.0,19,0.00,,,0.00,Wunderground v.1.15,2013-03-12 23:10:00,
2013-03-12 16:16:00,75.5,30.3,30.12,East,79,1.0,1.0,19,0.00,,,0.00,Wunderground v.1.15,2013-03-12 23:16:00,
2013-03-12 16:25:00,76.2,30.9,30.12,WNW,300,0.0,2.0,19,0.00,,,0.00,Wunderground v.1.15,2013-03-12 23:25:00,
2013-03-12 16:30:00,76.4,31.1,30.12,SW,228,0.0,0.0,19,0.00,,,0.00,Wunderground v.1.15,2013-03-12 23:30:00,
2013-03-12 16:40:00,76.5,31.1,30.12,SE,131,1.0,1.0,19,0.00,,,0.00,Wunderground v.1.15,2013-03-12 23:40:00,
2013-03-12 16:45:00,75.9,29.3,30.12,WNW,299,1.0,1.0,18,0.00,,,0.00,Wunderground v.1.15,2013-03-12 23:45:00,
2013-03-12 16:55:00,75.0,29.9,30.12,NW,320,2.0,3.0,19,0.00,,,0.00,Wunderground v.1.15,2013-03-12 23:55:00,
2013-03-12 17:00:00,75.1,30.0,30.12,NW,326,1.0,1.0,19,0.00,,,0.00,Wunderground v.1.15,2013-03-13 00:00:00,
2013-03-12 17:10:00,74.5,30.8,30.12,ENE,72,1.0,1.0,20,0.00,,,0.00,Wunderground v.1.15,2013-03-13 00:10:00,
2013-03-12 17:15:00,74.4,30.7,30.12,East,86,1.0,1.0,20,0.00,,,0.00,Wunderground v.1.15,2013-03-13 00:15:00,
2013-03-12 17:25:00,74.2,30.5,30.12,NNE,25,1.0,1.0,20,0.00,,,0.00,Wunderground v.1.15,2013-03-13 00:25:00,
2013-03-12 17:31:00,74.3,30.6,30.12,ENE,75,0.0,0.0,20,0.00,,,0.00,Wunderground v.1.15,2013-03-13 00:31:00,
2013-03-12 17:40:00,74.6,30.9,30.12,ENE,77,0.0,0.0,20,0.00,,,0.00,Wunderground v.1.15,2013-03-13 00:40:00,
2013-03-12 17:50:00,72.8,31.7,30.12,WNW,299,1.0,4.0,22,0.00,,,0.00,Wunderground v.1.15,2013-03-13 00:50:00,
2013-03-12 17:55:00,69.0,31.7,30.12,NW,314,3.0,4.0,25,0.00,,,0.00,Wunderground v.1.15,2013-03-13 00:55:00,
2013-03-12 18:01:00,66.6,32.5,30.13,WNW,300,3.0,3.0,28,0.00,,,0.00,Wunderground v.1.15,2013-03-13 01:01:00,
2013-03-12 18:10:00,64.8,30.9,30.13,WNW,301,2.0,2.0,28,0.00,,,0.00,Wunderground v.1.15,2013-03-13 01:10:00,
2013-03-12 18:16:00,64.8,30.0,30.13,WNW,303,3.0,3.0,27,0.00,,,0.00,Wunderground v.1.15,2013-03-13 01:16:00,
2013-03-12 18:25:00,64.6,30.7,30.13,WNW,297,2.0,3.0,28,0.00,,,0.00,Wunderground v.1.15,2013-03-13 01:25:00,
2013-03-12 18:30:00,62.7,31.6,30.13,NW,310,1.0,1.0,31,0.00,,,0.00,Wunderground v.1.15,2013-03-13 01:30:00,
2013-03-12 18:40:00,60.7,31.4,30.13,WNW,296,2.0,2.0,33,0.00,,,0.00,Wunderground v.1.15,2013-03-13 01:40:00,
2013-03-12 18:45:00,60.6,31.3,30.13,WNW,301,2.0,2.0,33,0.00,,,0.00,Wunderground v.1.15,2013-03-13 01:45:00,
2013-03-12 18:55:00,60.1,31.6,30.14,NW,324,2.0,3.0,34,0.00,,,0.00,Wunderground v.1.15,2013-03-13 01:55:00,
2013-03-12 19:00:00,59.5,31.1,30.14,NW,313,2.0,3.0,34,0.00,,,0.00,Wunderground v.1.15,2013-03-13 02:00:00,
2013-03-12 19:10:00,59.4,31.0,30.14,NW,319,2.0,2.0,34,0.00,,,0.00,Wunderground v.1.15,2013-03-13 02:10:00,
2013-03-12 19:15:00,59.6,31.2,30.14,WNW,294,3.0,3.0,34,0.00,,,0.00,Wunderground v.1.15,2013-03-13 02:15:00,
2013-03-12 19:25:00,59.7,30.5,30.14,WNW,301,2.0,4.0,33,0.00,,,0.00,Wunderground v.1.15,2013-03-13 02:25:00,
2013-03-12 19:30:00,59.6,30.4,30.15,NW,313,3.0,3.0,33,0.00,,,0.00,Wunderground v.1.15,2013-03-13 02:30:00,
2013-03-12 19:40:00,59.6,30.4,30.15,NW,315,3.0,3.0,33,0.00,,,0.00,Wunderground v.1.15,2013-03-13 02:40:00,
2013-03-12 19:45:00,59.6,30.4,30.15,NNW,329,3.0,4.0,33,0.00,,,0.00,Wunderground v.1.15,2013-03-13 02:45:00,
2013-03-12 19:55:00,59.4,30.3,30.15,NW,316,4.0,6.0,33,0.00,,,0.00,Wunderground v.1.15,2013-03-13 02:55:00,
2013-03-12 20:00:00,59.1,30.7,30.15,NW,304,3.0,3.0,34,0.00,,,0.00,Wunderground v.1.15,2013-03-13 03:00:00,
2013-03-12 20:10:00,59.2,30.8,30.15,NW,305,4.0,4.0,34,0.00,,,0.00,Wunderground v.1.15,2013-03-13 03:10:00,
2013-03-12 20:15:00,59.0,31.4,30.16,NE,45,4.0,4.0,35,0.00,,,0.00,Wunderground v.1.15,2013-03-13 03:15:00,
2013-03-12 20:25:00,58.2,32.7,30.17,ENE,77,1.0,3.0,38,0.00,,,0.00,Wunderground v.1.15,2013-03-13 03:25:00,
2013-03-12 20:30:00,57.6,33.4,30.17,SW,224,0.0,1.0,40,0.00,,,0.00,Wunderground v.1.15,2013-03-13 03:30:00,
2013-03-12 20:40:00,56.0,32.6,30.18,WNW,303,1.0,2.0,41,0.00,,,0.00,Wunderground v.1.15,2013-03-13 03:40:00,
2013-03-12 20:45:00,55.0,32.9,30.18,NW,308,2.0,2.0,43,0.00,,,0.00,Wunderground v.1.15,2013-03-13 03:45:00,
2013-03-12 20:55:00,54.9,32.2,30.19,NW,307,3.0,3.0,42,0.00,,,0.00,Wunderground v.1.15,2013-03-13 03:55:00,
2013-03-12 21:00:00,54.7,31.4,30.19,West,278,2.0,3.0,41,0.00,,,0.00,Wunderground v.1.15,2013-03-13 04:00:00,
2013-03-12 21:05:00,55.0,31.1,30.19,West,279,2.0,3.0,40,0.00,,,0.00,Wunderground v.1.15,2013-03-13 04:05:00,
2013-03-12 21:10:00,55.8,31.2,30.19,NW,320,2.0,4.0,39,0.00,,,0.00,Wunderground v.1.15,2013-03-13 04:10:00,
2013-03-12 21:15:00,56.1,30.8,30.20,West,278,2.0,4.0,38,0.00,,,0.00,Wunderground v.1.15,2013-03-13 04:15:00,
2013-03-12 21:25:00,56.7,31.4,30.20,WNW,302,2.0,2.0,38,0.00,,,0.00,Wunderground v.1.15,2013-03-13 04:25:00,
2013-03-12 21:30:00,56.9,31.5,30.21,WNW,298,2.0,4.0,38,0.00,,,0.00,Wunderground v.1.15,2013-03-13 04:30:00,
2013-03-12 21:40:00,56.6,31.3,30.21,NW,307,3.0,4.0,38,0.00,,,0.00,Wunderground v.1.15,2013-03-13 04:40:00,
2013-03-12 21:45:00,56.7,31.4,30.21,WNW,297,3.0,4.0,38,0.00,,,0.00,Wunderground v.1.15,2013-03-13 04:45:00,